KQ5S-13 Weather Reports


time (UTC)temp
C
wind
direction
speed
KPH
gust
KPH
rain 1hr
cm
rain 24hr
cm
rain mn
cm
humidity
%
barometer
mb
20260504151017 21 270 3.2 11.3 0.00 0.00 0.00 50 1017.3
20260504141037 19 248 3.2 6.4 0.00 0.00 0.00 54 1017.7
20260504110158 6 0.0 0.0 0.00 0.00 0.00 91 1016.7
20260504081036 6 0.0 0.0 0.00 0.00 0.00 88 1016.5
20260504050016 7 0.0 0.0 0.00 0.00 0.00 84 1017.6
20260504045017 8 0.0 0.0 0.00 0.00 0.00 84 1017.6
20260504044017 8 0.0 0.0 0.00 0.00 0.00 84 1017.6
20260504043017 8 0.0 0.0 0.00 0.00 0.00 84 1017.8
20260504042037 8 0.0 1.6 0.00 0.00 0.00 83 1017.7
20260504041017 8 0.0 1.6 0.00 0.00 0.00 82 1017.9
20260504040017 8 0.0 0.0 0.00 0.00 0.00 82 1018.0
20260504035017 8 0.0 1.6 0.00 0.00 0.00 82 1018.1
20260504034017 9 0.0 0.0 0.00 0.00 0.00 81 1018.2
20260504033037 9 0.0 0.0 0.00 0.00 0.00 81 1018.3
20260504032017 10 0.0 0.0 0.00 0.00 0.00 80 1018.3
20260504031017 10 0.0 0.0 0.00 0.00 0.00 77 1018.3
20260504030017 10 0.0 0.0 0.00 0.00 0.00 76 1018.2
20260504025017 10 0.0 0.0 0.00 0.00 0.00 76 1018.0
20260504024017 10 0.0 0.0 0.00 0.00 0.00 76 1018.0
20260504023016 11 0.0 0.0 0.00 0.00 0.00 75 1018.0
20260504022037 11 0.0 0.0 0.00 0.00 0.00 74 1017.7
20260504021016 11 0.0 3.2 0.00 0.00 0.00 74 1017.7
20260504020016 11 0.0 0.0 0.00 0.00 0.00 73 1017.6
20260504015017 12 0.0 0.0 0.00 0.00 0.00 71 1017.5
20260504014016 12 0.0 0.0 0.00 0.00 0.00 70 1017.4
20260504013016 13 0.0 0.0 0.00 0.00 0.00 68 1017.4
20260504012017 13 0.0 1.6 0.00 0.00 0.00 66 1017.3
20260504011016 13 0.0 0.0 0.00 0.00 0.00 65 1017.3
20260504010017 14 0.0 0.0 0.00 0.00 0.00 63 1017.3
20260504005037 15 0.0 0.0 0.00 0.00 0.00 61 1017.3
20260504004057 15 0.0 0.0 0.00 0.00 0.00 57 1017.2
20260504003017 16 0.0 0.0 0.00 0.00 0.00 54 1017.1
20260504002017 16 0.0 0.0 0.00 0.00 0.00 48 1017.0
20260504001016 17 0.0 0.0 0.00 0.00 0.00 46 1017.1
20260504000017 17 0.0 0.0 0.00 0.00 0.00 45 1017.1
20260503235037 17 0.0 1.6 0.00 0.00 0.00 43 1017.0
20260503234137 18 270 1.6 4.8 0.00 0.00 0.00 42 1017.1
20260503233017 18 270 1.6 3.2 0.00 0.00 0.00 41 1017.1
20260503232016 18 315 1.6 6.4 0.00 0.00 0.00 41 1017.0
20260503231016 18 270 3.2 6.4 0.00 0.00 0.00 39 1017.0
20260503230016 19 270 1.6 6.4 0.00 0.00 0.00 39 1017.1
20260503225017 20 270 3.2 9.7 0.00 0.00 0.00 39 1017.2
20260503224016 20 315 1.6 4.8 0.00 0.00 0.00 36 1017.2
20260503223016 20 270 3.2 11.3 0.00 0.00 0.00 35 1017.4
20260503222016 21 293 3.2 9.7 0.00 0.00 0.00 33 1017.5
20260503221016 21 270 4.8 14.5 0.00 0.00 0.00 34 1017.6
20260503220016 21 293 3.2 8.0 0.00 0.00 0.00 37 1017.6
20260503215016 21 248 3.2 9.7 0.00 0.00 0.00 37 1017.7
20260503214016 21 270 4.8 16.1 0.00 0.00 0.00 39 1017.7
20260503213016 21 270 3.2 9.7 0.00 0.00 0.00 40 1017.8
20260503212036 20 315 3.2 12.9 0.00 0.00 0.00 40 1018.0
20260503211016 20 293 3.2 6.4 0.00 0.00 0.00 44 1017.9
20260503210036 19 248 3.2 6.4 0.00 0.00 0.00 42 1018.0
20260503205016 19 293 4.8 9.7 0.00 0.00 0.00 46 1018.2
20260503204016 18 293 3.2 11.3 0.00 0.00 0.00 45 1018.3
20260503203016 18 0 3.2 6.4 0.00 0.00 0.00 45 1018.5
20260503202016 18 270 4.8 12.9 0.00 0.00 0.00 50 1018.7
20260503201016 18 315 4.8 9.7 0.00 0.00 0.00 45 1018.7
20260503200056 18 270 3.2 6.4 0.00 0.00 0.00 46 1018.9
20260503195016 18 293 1.6 4.8 0.00 0.00 0.00 50 1019.2
20260503194016 18 315 3.2 17.7 0.00 0.00 0.00 47 1019.3
20260503193016 17 248 3.2 11.3 0.00 0.00 0.00 49 1019.4
20260503192016 17 293 3.2 11.3 0.00 0.00 0.00 49 1019.8
20260503191016 17 225 3.2 4.8 0.00 0.00 0.00 48 1019.8
20260503190016 17 270 3.2 16.1 0.00 0.00 0.00 48 1020.0
20260503185016 17 293 3.2 11.3 0.00 0.00 0.00 49 1020.2
20260503184016 17 338 4.8 11.3 0.00 0.00 0.00 50 1020.3
20260503183016 17 270 3.2 8.0 0.00 0.00 0.00 48 1020.4
20260503182016 16 68 3.2 6.4 0.00 0.00 0.00 44 1020.5
20260503181016 16 270 3.2 11.3 0.00 0.00 0.00 50 1020.6
20260503180016 16 0 4.8 12.9 0.00 0.00 0.00 49 1020.8
20260503175016 16 293 4.8 11.3 0.00 0.00 0.00 49 1020.9
20260503174016 16 270 4.8 9.7 0.00 0.00 0.00 49 1021.0
20260503173036 16 90 3.2 6.4 0.00 0.00 0.00 46 1021.1
20260503172016 17 293 1.6 4.8 0.00 0.00 0.00 48 1021.2
20260503171016 17 270 3.2 4.8 0.00 0.00 0.00 52 1021.1